Location: Cactus School
(34.5700°N, 118.0931°W)
Time: 06:51:28
(UTC-07:00)

Vanguard 2 - Pass Details

Date: 27 April 2024
Orbit: 553 x 2914 km, 32.9° (Epoch: 22 May)

Event Time Altitude Azimuth Distance (km) Brightness Sun altitude
Exits shadow 01:49:33 73° 230° (SW) 2,518 9.7 -39.4°
Maximum altitude 01:51:25 81° 170° (S) 2,539 9.8 -39.2°
Drops below altitude 10° 02:09:09 10° 87° (E) 5,739 12.2 -37.9°
Sets 02:13:39 0° 87° (E) 6,738 12.7 -37.5°
